Time,TemperatureF,DewpointF,PressureIn,WindDirection,WindDirectionDegrees,WindSpeedMPH,WindSpeedGustMPH,Humidity,HourlyPrecipIn,Conditions,Clouds,dailyrainin,SoftwareType,DateUTC
2013-11-21 00:00:00,40.6,10.9,30.29,SE,135,9.8,15.2,29,0.00,,,0.00,pywws,2013-11-21 05:00:00,
2013-11-21 00:01:00,40.6,10.9,30.29,SE,135,9.8,15.2,29,0.00,,,0.00,pywws,2013-11-21 05:01:00,
2013-11-21 00:02:00,40.6,10.9,30.29,South,180,8.3,12.1,29,0.00,,,0.00,pywws,2013-11-21 05:02:00,
2013-11-21 00:08:00,40.5,10.7,30.29,South,180,9.2,14.5,29,0.00,,,0.00,pywws,2013-11-21 05:08:00,
2013-11-21 00:14:00,40.3,10.6,30.29,North,0,3.8,5.4,29,0.00,,,0.00,pywws,2013-11-21 05:14:00,
2013-11-21 00:20:00,40.6,10.9,30.29,SE,135,9.8,18.3,29,0.00,,,0.00,pywws,2013-11-21 05:20:00,
2013-11-21 00:25:00,40.3,10.6,30.29,SE,135,6.0,8.3,29,0.00,,,0.00,pywws,2013-11-21 05:25:00,
2013-11-21 00:27:00,40.5,10.7,30.29,West,270,6.0,7.6,29,0.00,,,0.00,pywws,2013-11-21 05:27:00,
2013-11-21 00:32:00,40.5,10.7,30.29,South,180,8.3,11.4,29,0.00,,,0.00,pywws,2013-11-21 05:32:00,
2013-11-21 00:38:00,40.5,10.7,30.29,SW,225,5.4,8.3,29,0.00,,,0.00,pywws,2013-11-21 05:38:00,
2013-11-21 00:44:00,40.5,10.7,30.30,South,180,5.4,7.6,29,0.00,,,0.00,pywws,2013-11-21 05:44:00,
2013-11-21 00:49:00,40.3,11.3,30.30,SE,135,9.8,13.6,30,0.00,,,0.00,pywws,2013-11-21 05:49:00,
2013-11-21 00:55:00,40.5,11.5,30.30,SE,135,5.4,9.2,30,0.00,,,0.00,pywws,2013-11-21 05:55:00,
2013-11-21 01:01:00,40.3,11.3,30.30,SE,135,8.3,12.1,30,0.00,,,0.00,pywws,2013-11-21 06:01:00,
2013-11-21 01:07:00,40.3,11.3,30.30,South,180,6.9,9.2,30,0.00,,,0.00,pywws,2013-11-21 06:07:00,
2013-11-21 01:12:00,40.3,11.3,30.30,SE,135,7.6,11.4,30,0.00,,,0.00,pywws,2013-11-21 06:12:00,
2013-11-21 01:18:00,40.3,11.3,30.30,SE,135,8.3,13.6,30,0.00,,,0.00,pywws,2013-11-21 06:18:00,
2013-11-21 01:24:00,40.3,11.3,30.31,SE,135,7.6,12.1,30,0.00,,,0.00,pywws,2013-11-21 06:24:00,
2013-11-21 01:29:00,40.1,11.2,30.31,South,180,3.8,6.0,30,0.00,,,0.00,pywws,2013-11-21 06:29:00,
2013-11-21 01:31:00,40.3,11.3,30.31,South,180,5.4,6.9,30,0.00,,,0.00,pywws,2013-11-21 06:31:00,
2013-11-21 01:36:00,40.1,11.9,30.31,South,180,3.1,6.0,31,0.00,,,0.00,pywws,2013-11-21 06:36:00,
2013-11-21 01:37:00,40.1,11.9,30.31,SE,135,6.9,10.7,31,0.00,,,0.00,pywws,2013-11-21 06:37:00,
2013-11-21 01:42:00,40.3,12.1,30.31,South,180,4.5,10.7,31,0.00,,,0.00,pywws,2013-11-21 06:42:00,
2013-11-21 01:49:00,40.3,12.1,30.32,East,90,5.4,7.6,31,0.00,,,0.00,pywws,2013-11-21 06:49:00,
2013-11-21 01:54:00,40.1,12.6,30.32,SE,135,7.6,13.0,32,0.00,,,0.00,pywws,2013-11-21 06:54:00,
2013-11-21 01:56:00,40.1,12.6,30.31,SE,135,7.6,10.7,32,0.00,,,0.00,pywws,2013-11-21 06:56:00,
2013-11-21 02:00:00,40.1,12.6,30.32,SE,135,9.8,13.0,32,0.00,,,0.00,pywws,2013-11-21 07:00:00,
2013-11-21 02:01:00,40.1,12.6,30.32,SE,135,9.2,13.0,32,0.00,,,0.00,pywws,2013-11-21 07:01:00,
2013-11-21 02:05:00,40.1,13.3,30.32,SE,135,6.9,9.8,33,0.00,,,0.00,pywws,2013-11-21 07:05:00,
2013-11-21 02:11:00,40.1,13.3,30.32,SE,135,6.9,9.8,33,0.00,,,0.00,pywws,2013-11-21 07:11:00,
2013-11-21 02:17:00,40.1,13.3,30.31,SE,135,5.4,9.8,33,0.00,,,0.00,pywws,2013-11-21 07:17:00,
2013-11-21 02:22:00,40.3,13.5,30.31,North,0,5.4,13.0,33,0.00,,,0.00,pywws,2013-11-21 07:22:00,
2013-11-21 02:26:00,40.1,13.3,30.31,SE,135,6.9,12.1,33,0.00,,,0.00,pywws,2013-11-21 07:26:00,
2013-11-21 02:28:00,40.3,13.5,30.31,SE,135,10.7,13.0,33,0.00,,,0.00,pywws,2013-11-21 07:28:00,
2013-11-21 02:33:00,40.1,14.0,30.31,East,90,7.6,11.4,34,0.00,,,0.00,pywws,2013-11-21 07:33:00,
2013-11-21 02:39:00,39.9,13.9,30.31,SW,225,6.9,11.4,34,0.00,,,0.00,pywws,2013-11-21 07:39:00,
2013-11-21 02:45:00,40.1,14.0,30.31,SW,225,6.9,9.8,34,0.00,,,0.00,pywws,2013-11-21 07:45:00,
2013-11-21 02:46:00,40.1,14.0,30.31,SW,225,6.9,9.8,34,0.00,,,0.00,pywws,2013-11-21 07:46:00,
2013-11-21 02:51:00,40.1,14.0,30.31,SE,135,8.3,12.1,34,0.00,,,0.00,pywws,2013-11-21 07:51:00,
2013-11-21 02:56:00,40.1,14.0,30.31,SE,135,9.8,14.5,34,0.00,,,0.00,pywws,2013-11-21 07:56:00,
2013-11-21 03:01:00,40.1,14.0,30.31,South,180,6.9,11.4,34,0.00,,,0.00,pywws,2013-11-21 08:01:00,
2013-11-21 03:03:00,40.1,14.0,30.31,South,180,6.9,11.4,34,0.00,,,0.00,pywws,2013-11-21 08:03:00,
2013-11-21 03:06:00,40.1,14.0,30.31,South,180,6.9,11.4,34,0.00,,,0.00,pywws,2013-11-21 08:06:00,
2013-11-21 03:09:00,40.1,14.0,30.31,SE,135,5.4,9.2,34,0.00,,,0.00,pywws,2013-11-21 08:09:00,
2013-11-21 03:11:00,40.1,14.0,30.31,South,180,9.8,15.2,34,0.00,,,0.00,pywws,2013-11-21 08:11:00,
2013-11-21 03:14:00,40.3,14.2,30.31,North,0,8.3,11.4,34,0.00,,,0.00,pywws,2013-11-21 08:14:00,
2013-11-21 03:16:00,40.3,14.2,30.31,SE,135,6.9,9.2,34,0.00,,,0.00,pywws,2013-11-21 08:16:00,
2013-11-21 03:22:00,40.3,14.8,30.31,South,180,6.9,9.8,35,0.00,,,0.00,pywws,2013-11-21 08:22:00,
2013-11-21 03:28:00,40.5,15.0,30.31,South,180,6.0,9.2,35,0.00,,,0.00,pywws,2013-11-21 08:28:00,
2013-11-21 03:31:00,40.3,14.8,30.31,SE,135,8.3,12.1,35,0.00,,,0.00,pywws,2013-11-21 08:31:00,
2013-11-21 03:33:00,40.5,15.0,30.31,SW,225,5.4,9.8,35,0.00,,,0.00,pywws,2013-11-21 08:33:00,
2013-11-21 03:36:00,40.3,14.8,30.31,SE,135,4.5,6.0,35,0.00,,,0.00,pywws,2013-11-21 08:36:00,
2013-11-21 03:40:00,40.6,15.2,30.31,South,180,8.3,12.1,35,0.00,,,0.00,pywws,2013-11-21 08:40:00,
2013-11-21 03:41:00,40.6,15.2,30.31,South,180,4.5,6.9,35,0.00,,,0.00,pywws,2013-11-21 08:41:00,
2013-11-21 03:45:00,40.6,15.2,30.31,South,180,8.3,12.1,35,0.00,,,0.00,pywws,2013-11-21 08:45:00,
2013-11-21 03:46:00,40.6,15.2,30.31,South,180,8.3,12.1,35,0.00,,,0.00,pywws,2013-11-21 08:46:00,
2013-11-21 03:51:00,40.6,15.2,30.31,SE,135,8.3,11.4,35,0.00,,,0.00,pywws,2013-11-21 08:51:00,
2013-11-21 03:56:00,40.6,15.2,30.31,SE,135,8.3,14.5,35,0.00,,,0.00,pywws,2013-11-21 08:56:00,
2013-11-21 04:01:00,40.8,15.3,30.31,South,180,8.3,13.6,35,0.00,,,0.00,pywws,2013-11-21 09:01:00,
2013-11-21 04:08:00,40.8,15.3,30.31,South,180,7.6,11.4,35,0.00,,,0.00,pywws,2013-11-21 09:08:00,
2013-11-21 04:13:00,40.6,15.8,30.30,SE,135,9.2,13.0,36,0.00,,,0.00,pywws,2013-11-21 09:13:00,
2013-11-21 04:19:00,40.6,15.8,30.30,South,180,9.8,13.0,36,0.00,,,0.00,pywws,2013-11-21 09:19:00,
2013-11-21 04:24:00,40.6,15.8,30.30,South,180,4.5,6.0,36,0.00,,,0.00,pywws,2013-11-21 09:24:00,
2013-11-21 04:30:00,40.6,15.8,30.30,South,180,6.9,12.1,36,0.00,,,0.00,pywws,2013-11-21 09:30:00,
2013-11-21 04:36:00,40.5,15.6,30.30,SE,135,6.9,11.4,36,0.00,,,0.00,pywws,2013-11-21 09:36:00,
2013-11-21 04:42:00,40.6,15.8,30.30,South,180,6.0,8.3,36,0.00,,,0.00,pywws,2013-11-21 09:42:00,
2013-11-21 04:48:00,40.6,16.4,30.30,SE,135,6.9,10.7,37,0.00,,,0.00,pywws,2013-11-21 09:48:00,
2013-11-21 04:53:00,40.6,16.4,30.30,SE,135,9.2,13.6,37,0.00,,,0.00,pywws,2013-11-21 09:53:00,
2013-11-21 04:59:00,40.6,16.4,30.31,South,180,6.9,9.2,37,0.00,,,0.00,pywws,2013-11-21 09:59:00,
2013-11-21 05:04:00,40.6,16.4,30.30,South,180,6.9,9.2,37,0.00,,,0.00,pywws,2013-11-21 10:04:00,
2013-11-21 05:10:00,40.6,17.0,30.30,SE,135,4.5,7.6,38,0.00,,,0.00,pywws,2013-11-21 10:10:00,
2013-11-21 05:16:00,40.6,17.6,30.31,SW,225,3.8,6.0,39,0.00,,,0.00,pywws,2013-11-21 10:16:00,
2013-11-21 05:21:00,39.7,20.7,30.31,SE,135,6.9,14.5,46,0.00,,,0.00,pywws,2013-11-21 10:21:00,
2013-11-21 05:27:00,39.4,21.8,30.32,SW,225,5.4,9.8,49,0.00,,,0.00,pywws,2013-11-21 10:27:00,
2013-11-21 05:32:00,39.6,22.0,30.32,South,180,5.4,7.6,49,0.00,,,0.00,pywws,2013-11-21 10:32:00,
2013-11-21 05:38:00,39.7,21.2,30.32,SE,135,8.3,13.6,47,0.00,,,0.00,pywws,2013-11-21 10:38:00,
2013-11-21 05:44:00,39.4,22.3,30.32,East,90,4.5,6.9,50,0.00,,,0.00,pywws,2013-11-21 10:44:00,
2013-11-21 05:49:00,39.7,22.2,30.32,South,180,6.0,9.2,49,0.00,,,0.00,pywws,2013-11-21 10:49:00,
2013-11-21 05:55:00,39.9,21.8,30.32,South,180,5.4,9.2,48,0.00,,,0.00,pywws,2013-11-21 10:55:00,
2013-11-21 06:00:00,40.1,21.5,30.32,SE,135,6.9,11.4,47,0.00,,,0.00,pywws,2013-11-21 11:00:00,
2013-11-21 06:06:00,40.1,21.5,30.33,East,90,5.4,9.2,47,0.00,,,0.00,pywws,2013-11-21 11:06:00,
2013-11-21 06:11:00,39.9,21.3,30.32,South,180,4.5,5.4,47,0.00,,,0.00,pywws,2013-11-21 11:11:00,
2013-11-21 06:16:00,39.9,21.8,30.32,SE,135,4.5,8.3,48,0.00,,,0.00,pywws,2013-11-21 11:16:00,
2013-11-21 06:21:00,39.9,21.8,30.32,SW,225,3.8,6.9,48,0.00,,,0.00,pywws,2013-11-21 11:21:00,
2013-11-21 06:27:00,39.9,21.8,30.32,South,180,8.3,13.6,48,0.00,,,0.00,pywws,2013-11-21 11:27:00,
2013-11-21 06:32:00,39.9,21.8,30.33,SE,135,8.3,13.6,48,0.00,,,0.00,pywws,2013-11-21 11:32:00,
2013-11-21 06:38:00,40.3,21.7,30.33,SE,135,3.8,10.7,47,0.00,,,0.00,pywws,2013-11-21 11:38:00,
2013-11-21 06:44:00,40.3,21.7,30.33,South,180,6.0,9.8,47,0.00,,,0.00,pywws,2013-11-21 11:44:00,
2013-11-21 06:49:00,40.3,21.7,30.33,SE,135,6.0,11.4,47,0.00,,,0.00,pywws,2013-11-21 11:49:00,
2013-11-21 06:55:00,40.3,21.7,30.34,SE,135,8.3,11.4,47,0.00,,,0.00,pywws,2013-11-21 11:55:00,
2013-11-21 07:01:00,40.5,21.8,30.33,SE,135,6.9,13.6,47,0.00,,,0.00,pywws,2013-11-21 12:01:00,
2013-11-21 07:06:00,40.5,21.8,30.33,SE,135,6.9,13.6,47,0.00,,,0.00,pywws,2013-11-21 12:06:00,
2013-11-21 07:11:00,40.3,21.7,30.33,SE,135,4.5,7.6,47,0.00,,,0.00,pywws,2013-11-21 12:11:00,
2013-11-21 07:16:00,40.5,21.8,30.33,SW,225,7.6,11.4,47,0.00,,,0.00,pywws,2013-11-21 12:16:00,
2013-11-21 07:21:00,40.3,22.2,30.33,South,180,4.5,6.9,48,0.00,,,0.00,pywws,2013-11-21 12:21:00,
2013-11-21 07:27:00,40.3,22.2,30.33,SE,135,4.5,8.3,48,0.00,,,0.00,pywws,2013-11-21 12:27:00,
2013-11-21 07:32:00,40.1,22.5,30.33,SE,135,6.9,12.1,49,0.00,,,0.00,pywws,2013-11-21 12:32:00,
2013-11-21 07:38:00,39.6,23.9,30.33,South,180,4.5,11.4,53,0.00,,,0.00,pywws,2013-11-21 12:38:00,
2013-11-21 07:44:00,39.2,24.8,30.32,South,180,5.4,7.6,56,0.00,,,0.00,pywws,2013-11-21 12:44:00,
2013-11-21 07:49:00,39.4,25.0,30.32,South,180,9.8,13.6,56,0.00,,,0.00,pywws,2013-11-21 12:49:00,
2013-11-21 07:55:00,39.6,24.7,30.32,SE,135,4.5,6.9,55,0.00,,,0.00,pywws,2013-11-21 12:55:00,
2013-11-21 08:00:00,39.6,24.7,30.32,South,180,5.4,8.3,55,0.00,,,0.00,pywws,2013-11-21 13:00:00,
2013-11-21 08:06:00,39.6,24.7,30.32,SW,225,8.3,15.2,55,0.00,,,0.00,pywws,2013-11-21 13:06:00,
2013-11-21 08:11:00,39.7,24.9,30.32,SE,135,7.6,11.4,55,0.00,,,0.00,pywws,2013-11-21 13:11:00,
2013-11-21 08:16:00,39.7,25.3,30.32,SE,135,8.3,14.5,56,0.00,,,0.00,pywws,2013-11-21 13:16:00,
2013-11-21 08:21:00,39.7,25.8,30.32,South,180,6.9,10.7,57,0.00,,,0.00,pywws,2013-11-21 13:21:00,
2013-11-21 08:27:00,39.9,26.4,30.32,South,180,8.3,14.5,58,0.01,,,0.01,pywws,2013-11-21 13:27:00,
2013-11-21 08:32:00,39.6,26.8,30.32,SE,135,10.7,14.5,60,0.01,,,0.01,pywws,2013-11-21 13:32:00,
2013-11-21 08:38:00,39.6,28.0,30.32,South,180,4.5,6.0,63,0.01,,,0.01,pywws,2013-11-21 13:38:00,
2013-11-21 08:44:00,39.4,28.2,30.32,SE,135,6.0,8.3,64,0.01,,,0.01,pywws,2013-11-21 13:44:00,
2013-11-21 08:49:00,39.2,28.8,30.31,SE,135,7.6,11.4,66,0.01,,,0.01,pywws,2013-11-21 13:49:00,
2013-11-21 08:55:00,39.0,30.1,30.32,SE,135,4.5,6.0,70,0.01,,,0.01,pywws,2013-11-21 13:55:00,
2013-11-21 09:00:00,39.0,30.4,30.32,South,180,7.6,11.4,71,0.01,,,0.01,pywws,2013-11-21 14:00:00,
2013-11-21 09:06:00,39.0,30.4,30.32,South,180,7.6,11.4,71,0.01,,,0.01,pywws,2013-11-21 14:06:00,
2013-11-21 09:11:00,39.2,31.3,30.32,SE,135,6.9,9.2,73,0.01,,,0.01,pywws,2013-11-21 14:11:00,
2013-11-21 09:16:00,39.0,31.8,30.32,SE,135,6.9,15.9,75,0.01,,,0.01,pywws,2013-11-21 14:16:00,
2013-11-21 09:21:00,39.0,32.1,30.32,South,180,4.5,7.6,76,0.01,,,0.01,pywws,2013-11-21 14:21:00,
2013-11-21 09:27:00,38.8,32.3,30.32,East,90,3.8,9.2,77,0.01,,,0.01,pywws,2013-11-21 14:27:00,
2013-11-21 09:32:00,38.7,32.7,30.32,South,180,6.9,8.3,79,0.00,,,0.01,pywws,2013-11-21 14:32:00,
2013-11-21 09:38:00,38.7,33.3,30.33,East,90,4.5,7.6,81,0.00,,,0.01,pywws,2013-11-21 14:38:00,
2013-11-21 09:44:00,38.5,33.8,30.33,South,180,6.9,9.8,83,0.00,,,0.01,pywws,2013-11-21 14:44:00,
2013-11-21 09:49:00,38.7,34.5,30.33,South,180,3.8,5.4,85,0.00,,,0.01,pywws,2013-11-21 14:49:00,
2013-11-21 09:55:00,38.5,34.7,30.33,South,180,3.1,4.5,86,0.00,,,0.01,pywws,2013-11-21 14:55:00,
2013-11-21 10:00:00,38.7,34.8,30.33,SE,135,5.4,7.6,86,0.00,,,0.01,pywws,2013-11-21 15:00:00,
2013-11-21 10:06:00,38.7,35.1,30.33,SE,135,3.8,6.0,87,0.01,,,0.02,pywws,2013-11-21 15:06:00,
2013-11-21 10:11:00,38.8,35.6,30.33,South,180,3.8,6.0,88,0.01,,,0.02,pywws,2013-11-21 15:11:00,
2013-11-21 10:16:00,38.8,35.6,30.34,West,270,3.8,5.4,88,0.01,,,0.02,pywws,2013-11-21 15:16:00,
2013-11-21 10:21:00,38.7,35.4,30.34,South,180,4.5,7.6,88,0.01,,,0.02,pywws,2013-11-21 15:21:00,
2013-11-21 10:27:00,39.0,35.8,30.34,East,90,3.8,6.0,88,0.01,,,0.02,pywws,2013-11-21 15:27:00,
2013-11-21 10:32:00,38.7,35.7,30.34,SE,135,3.1,6.0,89,0.01,,,0.02,pywws,2013-11-21 15:32:00,
2013-11-21 10:38:00,39.0,36.1,30.35,South,180,4.5,6.0,89,0.01,,,0.02,pywws,2013-11-21 15:38:00,
2013-11-21 10:44:00,39.0,36.3,30.35,SE,135,6.9,11.4,90,0.01,,,0.02,pywws,2013-11-21 15:44:00,
2013-11-21 10:49:00,39.2,36.2,30.35,South,180,6.9,9.8,89,0.01,,,0.02,pywws,2013-11-21 15:49:00,
2013-11-21 10:55:00,39.7,37.1,30.35,SE,135,1.6,2.2,90,0.01,,,0.02,pywws,2013-11-21 15:55:00,
2013-11-21 11:01:00,39.7,37.1,30.34,SW,225,3.1,4.5,90,0.01,,,0.02,pywws,2013-11-21 16:01:00,
2013-11-21 11:06:00,39.2,36.2,30.35,SE,135,4.5,7.6,89,0.00,,,0.02,pywws,2013-11-21 16:06:00,
2013-11-21 11:11:00,39.7,36.5,30.34,South,180,5.4,9.2,88,0.00,,,0.02,pywws,2013-11-21 16:11:00,
2013-11-21 11:16:00,39.9,36.7,30.34,SW,225,7.6,14.5,88,0.00,,,0.02,pywws,2013-11-21 16:16:00,
2013-11-21 11:21:00,40.1,36.8,30.34,South,180,3.1,6.0,88,0.00,,,0.02,pywws,2013-11-21 16:21:00,
2013-11-21 11:27:00,40.3,37.0,30.34,East,90,3.8,9.2,88,0.00,,,0.02,pywws,2013-11-21 16:27:00,
2013-11-21 11:32:00,40.3,36.7,30.33,SW,225,3.1,5.4,87,0.00,,,0.02,pywws,2013-11-21 16:32:00,
2013-11-21 11:38:00,39.9,36.7,30.34,SW,225,3.1,4.5,88,0.00,,,0.02,pywws,2013-11-21 16:38:00,
2013-11-21 11:44:00,40.6,37.7,30.33,SE,135,3.1,4.5,89,0.00,,,0.02,pywws,2013-11-21 16:44:00,
2013-11-21 11:49:00,40.3,37.3,30.33,South,180,4.5,7.6,89,0.00,,,0.02,pywws,2013-11-21 16:49:00,
2013-11-21 11:55:00,40.3,37.0,30.33,SW,225,3.8,4.5,88,0.00,,,0.02,pywws,2013-11-21 16:55:00,
2013-11-21 12:00:00,40.5,37.2,30.32,SE,135,7.6,9.2,88,0.00,,,0.02,pywws,2013-11-21 17:00:00,
2013-11-21 12:06:00,41.0,37.4,30.32,SW,225,4.5,6.9,87,0.00,,,0.02,pywws,2013-11-21 17:06:00,
2013-11-21 12:11:00,40.6,37.1,30.32,SE,135,5.4,9.8,87,0.00,,,0.02,pywws,2013-11-21 17:11:00,
2013-11-21 12:16:00,40.5,36.9,30.32,East,90,5.4,9.8,87,0.00,,,0.02,pywws,2013-11-21 17:16:00,
2013-11-21 12:21:00,40.8,37.3,30.31,South,180,3.8,6.0,87,0.00,,,0.02,pywws,2013-11-21 17:21:00,
2013-11-21 12:27:00,41.0,37.1,30.31,South,180,4.5,9.2,86,0.00,,,0.02,pywws,2013-11-21 17:27:00,
2013-11-21 12:32:00,40.6,37.1,30.32,South,180,9.2,13.0,87,0.00,,,0.02,pywws,2013-11-21 17:32:00,
2013-11-21 12:38:00,40.8,37.5,30.31,South,180,3.8,5.4,88,0.00,,,0.02,pywws,2013-11-21 17:38:00,
2013-11-21 12:44:00,40.8,37.5,30.31,South,180,5.4,7.6,88,0.00,,,0.02,pywws,2013-11-21 17:44:00,
2013-11-21 12:49:00,40.8,37.5,30.31,SE,135,4.5,6.9,88,0.00,,,0.02,pywws,2013-11-21 17:49:00,
2013-11-21 12:55:00,41.0,37.7,30.31,South,180,0.7,2.2,88,0.00,,,0.02,pywws,2013-11-21 17:55:00,
2013-11-21 13:00:00,41.2,38.2,30.30,South,180,3.8,6.0,89,0.00,,,0.02,pywws,2013-11-21 18:00:00,
2013-11-21 13:06:00,41.2,37.9,30.30,SE,135,5.4,9.8,88,0.00,,,0.02,pywws,2013-11-21 18:06:00,
2013-11-21 13:11:00,41.0,37.7,30.31,SE,135,6.9,9.2,88,0.00,,,0.02,pywws,2013-11-21 18:11:00,
2013-11-21 13:16:00,41.0,37.4,30.30,South,180,2.2,3.8,87,0.00,,,0.02,pywws,2013-11-21 18:16:00,
2013-11-21 13:21:00,41.2,37.9,30.29,SW,225,3.1,6.0,88,0.00,,,0.02,pywws,2013-11-21 18:21:00,
2013-11-21 13:27:00,41.2,37.9,30.29,South,180,3.8,6.0,88,0.01,,,0.04,pywws,2013-11-21 18:27:00,
2013-11-21 13:32:00,41.2,38.2,30.29,South,180,8.3,11.4,89,0.01,,,0.04,pywws,2013-11-21 18:32:00,
2013-11-21 13:38:00,41.4,38.4,30.29,South,180,3.1,6.0,89,0.01,,,0.04,pywws,2013-11-21 18:38:00,
2013-11-21 13:44:00,41.4,38.4,30.29,SW,225,3.1,3.8,89,0.01,,,0.04,pywws,2013-11-21 18:44:00,
2013-11-21 13:49:00,41.4,38.4,30.28,South,180,4.5,5.4,89,0.01,,,0.04,pywws,2013-11-21 18:49:00,
2013-11-21 13:55:00,41.7,38.7,30.28,SE,135,3.8,6.9,89,0.01,,,0.04,pywws,2013-11-21 18:55:00,
2013-11-21 14:00:00,41.9,38.9,30.27,South,180,4.5,6.9,89,0.01,,,0.04,pywws,2013-11-21 19:00:00,
2013-11-21 14:06:00,42.1,38.8,30.27,East,90,3.8,5.4,88,0.01,,,0.04,pywws,2013-11-21 19:06:00,
2013-11-21 14:11:00,42.1,38.8,30.26,South,180,4.5,7.6,88,0.01,,,0.04,pywws,2013-11-21 19:11:00,
2013-11-21 14:16:00,42.3,39.0,30.27,SE,135,4.5,6.0,88,0.01,,,0.04,pywws,2013-11-21 19:16:00,
2013-11-21 14:21:00,42.1,38.5,30.27,South,180,3.8,5.4,87,0.01,,,0.04,pywws,2013-11-21 19:21:00,
2013-11-21 14:27:00,42.3,38.7,30.26,SW,225,3.8,6.9,87,0.01,,,0.04,pywws,2013-11-21 19:27:00,
2013-11-21 14:32:00,42.3,38.7,30.26,South,180,6.9,11.4,87,0.00,,,0.04,pywws,2013-11-21 19:32:00,
2013-11-21 14:38:00,42.4,38.8,30.26,South,180,7.6,9.8,87,0.00,,,0.04,pywws,2013-11-21 19:38:00,
2013-11-21 14:44:00,42.3,38.7,30.25,SW,225,5.4,9.2,87,0.00,,,0.04,pywws,2013-11-21 19:44:00,
2013-11-21 14:49:00,42.4,38.8,30.26,South,180,7.6,10.7,87,0.00,,,0.04,pywws,2013-11-21 19:49:00,
2013-11-21 14:55:00,42.1,38.5,30.25,South,180,4.5,12.1,87,0.00,,,0.04,pywws,2013-11-21 19:55:00,
2013-11-21 15:00:00,42.1,38.5,30.25,South,180,5.4,7.6,87,0.00,,,0.04,pywws,2013-11-21 20:00:00,
2013-11-21 15:06:00,42.4,38.8,30.25,SE,135,4.5,6.0,87,0.00,,,0.04,pywws,2013-11-21 20:06:00,
2013-11-21 15:11:00,42.6,39.0,30.25,SE,135,3.8,6.0,87,0.00,,,0.04,pywws,2013-11-21 20:11:00,
2013-11-21 15:16:00,42.8,39.2,30.25,SE,135,3.8,5.4,87,0.00,,,0.04,pywws,2013-11-21 20:16:00,
2013-11-21 15:21:00,42.6,39.3,30.26,South,180,1.6,3.8,88,0.00,,,0.04,pywws,2013-11-21 20:21:00,
2013-11-21 15:27:00,42.6,39.3,30.25,SE,135,5.4,8.3,88,0.00,,,0.04,pywws,2013-11-21 20:27:00,
2013-11-21 15:32:00,42.6,39.3,30.26,SE,135,3.1,5.4,88,0.00,,,0.04,pywws,2013-11-21 20:32:00,
2013-11-21 15:38:00,42.4,39.1,30.26,SW,225,6.0,9.2,88,0.00,,,0.04,pywws,2013-11-21 20:38:00,
2013-11-21 15:44:00,42.4,39.1,30.26,SE,135,6.9,7.6,88,0.00,,,0.04,pywws,2013-11-21 20:44:00,
2013-11-21 15:49:00,42.3,39.0,30.26,South,180,7.6,10.7,88,0.00,,,0.04,pywws,2013-11-21 20:49:00,
2013-11-21 15:55:00,42.3,39.0,30.25,South,180,6.9,11.4,88,0.00,,,0.04,pywws,2013-11-21 20:55:00,
2013-11-21 16:00:00,42.4,39.1,30.25,SE,135,6.0,9.8,88,0.00,,,0.04,pywws,2013-11-21 21:00:00,
2013-11-21 16:06:00,42.4,38.8,30.25,East,90,3.8,4.5,87,0.00,,,0.04,pywws,2013-11-21 21:06:00,
2013-11-21 16:11:00,43.0,39.1,30.25,SE,135,5.4,9.2,86,0.00,,,0.04,pywws,2013-11-21 21:11:00,
2013-11-21 16:16:00,42.6,38.7,30.25,SE,135,5.4,6.9,86,0.00,,,0.04,pywws,2013-11-21 21:16:00,
2013-11-21 16:21:00,43.2,39.0,30.25,SE,135,5.4,10.7,85,0.00,,,0.04,pywws,2013-11-21 21:21:00,
2013-11-21 16:27:00,42.8,38.3,30.25,South,180,5.4,7.6,84,0.00,,,0.04,pywws,2013-11-21 21:27:00,
2013-11-21 16:32:00,42.6,38.4,30.26,East,90,3.8,6.0,85,0.00,,,0.04,pywws,2013-11-21 21:32:00,
2013-11-21 16:38:00,42.4,38.6,30.26,South,180,6.0,9.2,86,0.00,,,0.04,pywws,2013-11-21 21:38:00,
2013-11-21 16:44:00,42.4,38.6,30.25,SE,135,1.6,3.1,86,0.00,,,0.04,pywws,2013-11-21 21:44:00,
2013-11-21 16:49:00,42.4,38.8,30.25,South,180,3.8,6.9,87,0.00,,,0.04,pywws,2013-11-21 21:49:00,
2013-11-21 16:55:00,42.4,38.6,30.25,SE,135,5.4,7.6,86,0.00,,,0.04,pywws,2013-11-21 21:55:00,
2013-11-21 17:00:00,42.4,38.6,30.25,East,90,5.4,7.6,86,0.00,,,0.04,pywws,2013-11-21 22:00:00,
2013-11-21 17:06:00,42.6,39.0,30.25,SE,135,5.4,9.2,87,0.00,,,0.04,pywws,2013-11-21 22:06:00,
2013-11-21 17:11:00,42.4,38.8,30.26,SE,135,3.1,4.5,87,0.00,,,0.04,pywws,2013-11-21 22:11:00,
2013-11-21 17:16:00,42.8,38.9,30.26,SE,135,6.0,9.8,86,0.00,,,0.04,pywws,2013-11-21 22:16:00,
2013-11-21 17:21:00,42.8,38.6,30.27,SE,135,3.1,4.5,85,0.00,,,0.04,pywws,2013-11-21 22:21:00,
2013-11-21 17:27:00,42.8,38.6,30.27,South,180,3.1,5.4,85,0.00,,,0.04,pywws,2013-11-21 22:27:00,
2013-11-21 17:32:00,42.8,38.6,30.27,South,180,3.8,6.0,85,0.00,,,0.04,pywws,2013-11-21 22:32:00,
2013-11-21 17:38:00,43.0,38.8,30.27,SW,225,6.9,9.8,85,0.00,,,0.04,pywws,2013-11-21 22:38:00,
2013-11-21 17:44:00,43.0,38.5,30.26,NE,45,2.2,4.5,84,0.00,,,0.04,pywws,2013-11-21 22:44:00,
2013-11-21 17:49:00,43.0,38.8,30.26,South,180,6.0,7.6,85,0.00,,,0.04,pywws,2013-11-21 22:49:00,
2013-11-21 17:55:00,43.0,38.8,30.26,South,180,3.1,5.4,85,0.00,,,0.04,pywws,2013-11-21 22:55:00,
2013-11-21 18:00:00,43.2,38.7,30.26,SW,225,3.8,6.0,84,0.00,,,0.04,pywws,2013-11-21 23:00:00,
2013-11-21 18:06:00,43.3,38.5,30.25,East,90,2.2,4.5,83,0.00,,,0.04,pywws,2013-11-21 23:06:00,
2013-11-21 18:11:00,43.3,38.5,30.25,South,180,2.2,3.8,83,0.00,,,0.04,pywws,2013-11-21 23:11:00,
2013-11-21 18:16:00,43.3,38.5,30.25,SE,135,4.5,7.6,83,0.00,,,0.04,pywws,2013-11-21 23:16:00,
2013-11-21 18:21:00,43.7,38.6,30.27,East,90,1.6,5.4,82,0.00,,,0.04,pywws,2013-11-21 23:21:00,
2013-11-21 18:27:00,43.9,38.7,30.26,SE,135,3.8,5.4,82,0.00,,,0.04,pywws,2013-11-21 23:27:00,
2013-11-21 18:32:00,43.7,38.6,30.26,South,180,3.1,4.5,82,0.00,,,0.04,pywws,2013-11-21 23:32:00,
2013-11-21 18:38:00,43.7,38.3,30.26,South,180,3.8,6.0,81,0.00,,,0.04,pywws,2013-11-21 23:38:00,
2013-11-21 18:44:00,43.7,38.3,30.26,South,180,3.8,6.9,81,0.00,,,0.04,pywws,2013-11-21 23:44:00,
2013-11-21 18:49:00,43.7,38.3,30.26,South,180,0.7,2.2,81,0.00,,,0.04,pywws,2013-11-21 23:49:00,
2013-11-21 18:55:00,43.9,38.1,30.26,South,180,3.1,3.8,80,0.00,,,0.04,pywws,2013-11-21 23:55:00,
2013-11-21 19:01:00,44.1,38.3,30.25,SE,135,2.2,3.8,80,0.00,,,0.04,pywws,2013-11-22 00:01:00,
2013-11-21 19:06:00,44.1,38.3,30.25,SE,135,2.2,3.8,80,0.00,,,0.04,pywws,2013-11-22 00:06:00,
2013-11-21 19:11:00,44.2,37.5,30.25,SE,135,7.6,11.4,77,0.00,,,0.04,pywws,2013-11-22 00:11:00,
2013-11-21 19:16:00,44.2,37.5,30.25,East,90,3.8,6.0,77,0.00,,,0.04,pywws,2013-11-22 00:16:00,
2013-11-21 19:21:00,44.1,37.6,30.25,South,180,3.8,5.4,78,0.00,,,0.04,pywws,2013-11-22 00:21:00,
2013-11-21 19:27:00,44.2,37.5,30.24,SE,135,3.1,4.5,77,0.00,,,0.04,pywws,2013-11-22 00:27:00,
2013-11-21 19:32:00,44.2,37.8,30.24,South,180,5.4,9.2,78,0.00,,,0.04,pywws,2013-11-22 00:32:00,
2013-11-21 19:38:00,44.2,37.5,30.24,SE,135,4.5,9.2,77,0.00,,,0.04,pywws,2013-11-22 00:38:00,
2013-11-21 19:44:00,44.2,37.5,30.24,South,180,3.8,6.0,77,0.00,,,0.04,pywws,2013-11-22 00:44:00,
2013-11-21 19:49:00,44.2,37.5,30.23,SE,135,6.0,8.3,77,0.00,,,0.04,pywws,2013-11-22 00:49:00,
2013-11-21 19:55:00,44.2,37.5,30.23,SE,135,6.0,8.3,77,0.00,,,0.04,pywws,2013-11-22 00:55:00,
2013-11-21 20:00:00,44.4,37.7,30.22,South,180,4.5,6.0,77,0.00,,,0.04,pywws,2013-11-22 01:00:00,
2013-11-21 20:06:00,44.4,37.7,30.22,SW,225,5.4,7.6,77,0.00,,,0.04,pywws,2013-11-22 01:06:00,
2013-11-21 20:11:00,44.2,37.8,30.22,SW,225,5.4,8.3,78,0.00,,,0.04,pywws,2013-11-22 01:11:00,
2013-11-21 20:16:00,44.2,38.1,30.22,South,180,3.1,5.4,79,0.00,,,0.04,pywws,2013-11-22 01:16:00,
2013-11-21 20:22:00,44.6,37.8,30.23,South,180,3.1,6.0,77,0.00,,,0.04,pywws,2013-11-22 01:22:00,
2013-11-21 20:28:00,44.8,37.7,30.23,SW,225,3.8,5.4,76,0.00,,,0.04,pywws,2013-11-22 01:28:00,
2013-11-21 20:33:00,44.4,38.3,30.23,SE,135,3.8,6.0,79,0.00,,,0.04,pywws,2013-11-22 01:33:00,
2013-11-21 20:39:00,44.6,38.5,30.23,SE,135,3.8,5.4,79,0.00,,,0.04,pywws,2013-11-22 01:39:00,
2013-11-21 20:44:00,44.4,39.0,30.23,SE,135,3.8,5.4,81,0.00,,,0.04,pywws,2013-11-22 01:44:00,
2013-11-21 20:50:00,44.4,39.0,30.22,NW,315,3.1,3.8,81,0.00,,,0.04,pywws,2013-11-22 01:50:00,
2013-11-21 20:56:00,44.4,39.3,30.22,SE,135,3.8,6.0,82,0.00,,,0.04,pywws,2013-11-22 01:56:00,
2013-11-21 21:01:00,44.4,39.3,30.22,SE,135,4.5,7.6,82,0.00,,,0.04,pywws,2013-11-22 02:01:00,
2013-11-21 21:07:00,44.6,39.1,30.22,South,180,1.6,4.5,81,0.00,,,0.04,pywws,2013-11-22 02:07:00,
2013-11-21 21:08:00,44.4,39.3,30.22,SE,135,3.1,3.8,82,0.00,,,0.04,pywws,2013-11-22 02:08:00,
2013-11-21 21:10:00,44.6,39.1,30.22,SE,135,4.5,7.6,81,0.00,,,0.04,pywws,2013-11-22 02:10:00,
2013-11-21 21:11:00,44.6,39.1,30.22,SE,135,4.5,7.6,81,0.00,,,0.04,pywws,2013-11-22 02:11:00,
2013-11-21 21:13:00,45.0,39.5,30.22,SE,135,3.1,4.5,81,0.00,,,0.04,pywws,2013-11-22 02:13:00,
2013-11-21 21:19:00,45.1,39.0,30.21,South,180,3.8,7.6,79,0.00,,,0.04,pywws,2013-11-22 02:19:00,
2013-11-21 21:24:00,45.1,39.0,30.21,South,180,2.2,4.5,79,0.00,,,0.04,pywws,2013-11-22 02:24:00,
2013-11-21 21:30:00,45.3,39.5,30.21,South,180,4.5,6.0,80,0.01,,,0.05,pywws,2013-11-22 02:30:00,
2013-11-21 21:36:00,45.1,39.7,30.20,SE,135,7.6,9.2,81,0.01,,,0.05,pywws,2013-11-22 02:36:00,
2013-11-21 21:42:00,45.1,39.3,30.21,SE,135,3.1,5.4,80,0.01,,,0.05,pywws,2013-11-22 02:42:00,
2013-11-21 21:48:00,45.3,39.2,30.21,South,180,2.2,3.8,79,0.01,,,0.05,pywws,2013-11-22 02:48:00,
2013-11-21 21:53:00,45.5,39.4,30.20,SE,135,3.1,4.5,79,0.01,,,0.05,pywws,2013-11-22 02:53:00,
2013-11-21 21:59:00,45.9,39.4,30.21,SE,135,3.8,5.4,78,0.01,,,0.05,pywws,2013-11-22 02:59:00,
2013-11-21 22:04:00,45.9,39.4,30.21,SE,135,3.1,6.0,78,0.01,,,0.05,pywws,2013-11-22 03:04:00,
2013-11-21 22:10:00,45.9,39.4,30.21,South,180,3.8,6.0,78,0.01,,,0.05,pywws,2013-11-22 03:10:00,
2013-11-21 22:16:00,46.0,39.2,30.20,SE,135,3.8,6.9,77,0.01,,,0.05,pywws,2013-11-22 03:16:00,
2013-11-21 22:21:00,46.2,39.1,30.20,South,180,5.4,9.2,76,0.01,,,0.05,pywws,2013-11-22 03:21:00,
2013-11-21 22:27:00,46.0,39.2,30.20,SE,135,3.8,6.9,77,0.01,,,0.05,pywws,2013-11-22 03:27:00,
2013-11-21 22:32:00,45.9,39.4,30.19,East,90,3.1,5.4,78,0.00,,,0.05,pywws,2013-11-22 03:32:00,
2013-11-21 22:38:00,45.7,39.5,30.19,South,180,3.1,4.5,79,0.00,,,0.05,pywws,2013-11-22 03:38:00,
2013-11-21 22:44:00,45.7,39.9,30.19,North,0,3.8,6.0,80,0.00,,,0.05,pywws,2013-11-22 03:44:00,
2013-11-21 22:49:00,45.9,40.0,30.19,SW,225,2.2,4.5,80,0.00,,,0.05,pywws,2013-11-22 03:49:00,
2013-11-21 22:55:00,45.9,40.4,30.19,South,180,4.5,6.9,81,0.00,,,0.05,pywws,2013-11-22 03:55:00,
2013-11-21 23:00:00,45.9,40.4,30.19,SW,225,1.6,3.1,81,0.00,,,0.00,pywws,2013-11-22 04:00:00,
2013-11-21 23:06:00,45.9,40.4,30.19,SW,225,1.6,3.1,81,0.00,,,0.00,pywws,2013-11-22 04:06:00,
2013-11-21 23:11:00,45.5,40.3,30.19,SE,135,3.1,5.4,82,0.00,,,0.00,pywws,2013-11-22 04:11:00,
2013-11-21 23:16:00,45.3,40.5,30.19,South,180,5.4,6.9,83,0.00,,,0.00,pywws,2013-11-22 04:16:00,
2013-11-21 23:21:00,45.3,40.5,30.19,South,180,1.6,3.8,83,0.00,,,0.00,pywws,2013-11-22 04:21:00,
2013-11-21 23:27:00,45.3,40.8,30.19,South,180,0.7,2.2,84,0.00,,,0.00,pywws,2013-11-22 04:27:00,
2013-11-21 23:32:00,45.1,40.9,30.18,East,90,3.1,5.4,85,0.01,,,0.01,pywws,2013-11-22 04:32:00,
2013-11-21 23:38:00,45.0,41.3,30.19,SE,135,0.7,2.2,87,0.01,,,0.01,pywws,2013-11-22 04:38:00,
2013-11-21 23:44:00,45.0,41.6,30.19,South,180,2.2,5.4,88,0.01,,,0.01,pywws,2013-11-22 04:44:00,
2013-11-21 23:49:00,45.0,41.9,30.19,South,180,3.1,6.0,89,0.01,,,0.01,pywws,2013-11-22 04:49:00,
2013-11-21 23:55:00,45.0,42.2,30.19,SW,225,0.0,2.2,90,0.01,,,0.01,pywws,2013-11-22 04:55:00,